Total_Precipitation_Accumulation
0.00 0.00 0.00 0.00 0.00 0.00 0.00 0.00 0.00 0.00 0.02 0.03 0.03 0.03 0.03 0.01 0.00 0.00 0.00 0.00 0.00 0.02 0.00 0.00 0.01 0.00 0.00 0.00 0.00 0.00 0.00 0.00
0.00 0.00 0.00 0.00 0.00 0.00 0.00 0.00 0.00 0.02 0.05 0.05 0.03 0.02 0.01 0.00 0.00 0.00 0.00 0.00 0.00 0.00 0.01 0.00 0.00 0.00 0.00 0.00 0.00 0.00 0.00 0.00
0.00 0.00 0.00 0.00 0.00 0.00 0.00 0.00 0.00 0.00 0.01 0.01 0.00 0.00 0.00 0.00 0.00 0.00 0.00 0.00 0.00 0.00 0.00 0.02 0.00 0.00 0.00 0.00 0.00 0.00 0.00 0.00
0.00 0.00 0.00 0.00 0.00 0.00 0.00 0.00 0.00 0.00 0.01 0.02 0.03 0.07 0.10 0.08 0.03 0.00 0.00 0.00 0.00 0.00 0.00 0.02 0.02 0.00 0.00 0.00 0.00 0.00 0.00 0.00
0.00 0.00 0.00 0.00 0.00 0.00 0.00 0.00 0.00 0.00 0.01 0.03 0.04 0.05 0.04 0.02 0.00 0.00 0.00 0.00 0.00 0.00 0.00 0.01 0.01 0.00 0.00 0.00 0.00 0.00 0.00 0.00
0.00 0.00 0.00 0.00 0.00 0.00 0.00 0.00 0.01 0.00 0.01 0.01 0.01 0.01 0.00 0.00 0.00 0.00 0.00 0.00 0.00 0.00 0.00 0.02 0.01 0.01 0.01 0.00 0.00 0.00 0.00 0.00
0.00 0.00 0.00 0.00 0.00 0.00 0.00 0.00 0.00 0.00 0.01 0.01 0.01 0.01 0.00 0.01 0.00 0.01 0.01 0.01 0.01 0.01 0.01 0.01 0.01 0.00 0.00 0.00 0.00 0.00 0.00 0.00
0.00 0.00 0.00 0.00 0.00 0.00 0.00 0.00 0.00 0.00 0.01 0.02 0.01 0.00 0.00 0.00 0.00 0.00 0.01 0.02 0.03 0.03 0.02 0.02 0.02 0.02 0.03 0.01 0.00 0.00 0.00 0.00
0.00 0.00 0.00 0.00 0.00 0.00 0.00 0.00 0.00 0.00 0.00 0.01 0.01 0.01 0.01 0.02 0.01 0.01 0.02 0.03 0.05 0.05 0.05 0.05 0.06 0.10 0.10 0.04 0.01 0.00 0.00 0.00
0.00 0.00 0.00 0.00 0.00 0.00 0.00 0.00 0.00 0.00 0.00 0.01 0.02 0.03 0.02 0.03 0.03 0.03 0.03 0.05 0.07 0.07 0.09 0.11 0.19 0.23 0.23 0.10 0.03 0.02 0.01 0.00
0.00 0.00 0.00 0.00 0.00 0.00 0.00 0.00 0.00 0.00 0.00 0.02 0.04 0.05 0.08 0.09 0.07 0.05 0.05 0.06 0.08 0.09 0.13 0.14 0.16 0.17 0.19 0.21 0.12 0.07 0.06 0.04
0.00 0.00 0.00 0.00 0.00 0.00 0.00 0.00 0.00 0.00 0.01 0.05 0.11 0.15 0.19 0.21 0.16 0.11 0.11 0.13 0.13 0.13 0.15 0.19 0.24 0.23 0.24 0.26 0.28 0.28 0.32 0.29
0.00 0.00 0.00 0.00 0.02 0.02 0.04 0.04 0.04 0.07 0.11 0.17 0.21 0.20 0.23 0.24 0.24 0.20 0.20 0.20 0.18 0.14 0.16 0.22 0.27 0.32 0.40 0.51 0.62 0.63 0.63 0.62
0.07 0.02 0.03 0.04 0.03 0.10 0.14 0.16 0.21 0.26 0.28 0.28 0.31 0.29 0.26 0.23 0.26 0.35 0.41 0.33 0.34 0.43 0.51 0.50 0.52 0.57 0.67 0.71 0.73 0.81 0.98 1.08
0.25 0.18 0.13 0.10 0.06 0.03 0.08 0.19 0.18 0.15 0.15 0.20 0.23 0.23 0.22 0.22 0.20 0.26 0.45 0.67 0.57 0.45 0.49 0.57 0.66 0.70 0.68 0.69 0.71 0.63 0.57 0.61
0.35 0.32 0.28 0.21 0.15 0.10 0.07 0.11 0.28 0.45 0.47 0.36 0.31 0.23 0.18 0.16 0.23 0.35 0.49 0.64 0.77 0.80 0.80 0.74 0.61 0.58 0.56 0.52 0.56 0.67 0.75 0.72
0.17 0.25 0.43 0.32 0.14 0.10 0.11 0.14 0.21 0.32 0.58 0.80 0.83 0.79 0.63 0.45 0.36 0.37 0.50 0.64 0.70 0.80 0.87 0.86 0.79 0.70 0.85 0.74 0.67 0.69 0.75 0.82
0.04 0.03 0.06 0.07 0.05 0.06 0.08 0.13 0.15 0.21 0.28 0.37 0.57 0.83 0.98 0.97 0.94 0.87 0.71 0.61 0.67 0.86 0.89 0.80 0.84 0.87 1.03 0.90 0.94 0.78 0.70 0.65
0.00 0.00 0.00 0.01 0.03 0.04 0.04 0.05 0.05 0.06 0.12 0.22 0.28 0.30 0.39 0.52 0.65 0.81 0.94 0.91 0.92 0.94 0.90 0.94 0.90 0.90 1.04 0.90 0.92 0.78 0.79 0.76